sat.trackr.live / text

‹ back to catalog

STARLINK-2574

NORAD 48395 · 2021-038AU

PAYLOAD ACTIVE UNKNOWN

§ Identity

Operator
Country
US
Launch date
2021-05-04
Launch site
AFETR
Launch vehicle
Mass (kg)
RCS (m²)

Purposes: comms

External: N2YO · Heavens-Above · Gunter

§ Orbital elements

Epoch: 2026-09-19T10:05:23.089632Z

Period
94.01 min
Inclination
53.1599°
Eccentricity
0.0001102
Mean motion
15.31700134 rev/d
Perigee alt
470.0 km
Apogee alt
471.5 km
Semi-major
6,848.9 km
B*
3.7018e-5
RAAN
153.3203°
Arg perigee
89.6715°
Mean anomaly
270.4412°
Rev number
29,831

§ Raw data

STARLINK-25741 48395U 21038AU  26262.42040613  .00000784  00000+0  37018-4 0  99922 48395  53.1599 153.3203 0001102  89.6715 270.4412 15.31700134298318

JSON: /api/v1/satellites/48395 · /tle

For live sub-satellite position, see the globe view (requires WebGL).

§ Visibility from observer

Set your observer location to see the next 7 days of passes ≥ 10°. The values pass through the URL so the page stays shareable.

No JS? Fill the form by hand. The geolocation button needs JavaScript.